GPM-CORE

Last updated on Sun Jun 21 2026 00:02:51 GMT+0000 (Coordinated Universal Time)

1 39574U 14009C 26171.44675697 .00009759 00000+0 21311-3 0 9997 2 39574 64.9722 297.2099 0011702 252.7565 107.2295 15.44632575698316
UTC large
Height (km)
Speed (km/s)
/
Latitude / Longitude
Inclination (degrees)
Orbital Period (minutes)
Azimuth
Elevation
Range (km)
Doppler Factor

Next 0 passes for location: London (51.5072 / 0.1276)

No passes found over London.
GPM-CORE